Chester River Kenton DE USA current weather conditions

sailwx.info

Wind from 028 at 1 knots gusting 2

Air temperature 7.1° C
Dewpoint 6.8° C

Last reported at 2019-Dec-13 21:45 UTC.
Time now 2019-Dec-13 23:10 UTC

Location: N 39°14' W 075°44'.
View on Google Maps.

See reports from other nearby stations

  
Tides and Currents Weather Stations Pressure Air Temp Water Temp Dewpoint Dewpoint Depression Visibility Wind Speed Wind Dir Waves Ship Positions
date/time (UTC)wind fromknots sea level pressurealtimeterstation pressurevisibilityair tempwater tempwave heightnotes
2019-Dec-13 21:45 028 1 gusting 2 7.1
2019-Dec-13 21:40 039 0 gusting 1 7.1
2019-Dec-13 21:35 054 0 gusting 2 7.1
2019-Dec-13 21:30 080 1 gusting 4 7.1
2019-Dec-13 21:25 067 0 gusting 2 7.1
2019-Dec-13 21:20 068 0 gusting 2 7.1
2019-Dec-13 21:15 069 1 gusting 3 7.1
2019-Dec-13 21:10 050 1 gusting 2 7.2
2019-Dec-13 21:05 037 1 gusting 2 7.3
2019-Dec-13 21:00 064 1 gusting 3 7.3
2019-Dec-13 20:55 066 1 gusting 3 7.3
2019-Dec-13 20:50 067 1 gusting 3 7.4
2019-Dec-13 20:45 058 1 gusting 3 7.5
2019-Dec-13 20:40 052 1 gusting 2 7.6
2019-Dec-13 20:35 058 0 gusting 1 7.7
2019-Dec-13 20:30 055 1 gusting 2 7.8
2019-Dec-13 20:25 056 0 gusting 1 7.8
2019-Dec-13 20:20 067 0 gusting 1 7.8
2019-Dec-13 20:15 062 0 gusting 1 7.7
2019-Dec-13 20:10 058 0 gusting 1 7.7
2019-Dec-13 20:05 058 0 gusting 2 7.6
2019-Dec-13 20:00 062 1 gusting 2 7.6
2019-Dec-13 19:55 071 0 gusting 1 7.6
2019-Dec-13 19:50 066 0 gusting 1 7.5
2019-Dec-13 19:45 068 0 gusting 2 7.6
2019-Dec-13 19:40 049 0 gusting 1 7.5
2019-Dec-13 19:35 050 1 gusting 2 7.4
2019-Dec-13 19:30 043 1 gusting 3 7.4
2019-Dec-13 19:25 045 1 gusting 2 7.4
2019-Dec-13 19:20 053 1 gusting 2 7.3
2019-Dec-13 19:15 057 1 gusting 3 7.3
2019-Dec-13 19:10 058 1 gusting 4 7.4
2019-Dec-13 19:05 044 2 gusting 4 7.3
2019-Dec-13 19:00 030 3 gusting 4 7.1
2019-Dec-13 18:55 030 3 gusting 4 7.0
2019-Dec-13 18:50 030 2 gusting 3 6.9
2019-Dec-13 18:45 023 2 gusting 3 6.9
2019-Dec-13 18:40 025 2 gusting 4 6.9
2019-Dec-13 18:35 014 2 gusting 3 6.8
2019-Dec-13 18:30 005 2 gusting 3 6.7
2019-Dec-13 18:25 009 2 gusting 4 6.7
2019-Dec-13 18:20 010 3 gusting 5 6.8
2019-Dec-13 18:15 005 2 gusting 4 6.9
2019-Dec-13 18:10 008 2 gusting 4 7.1
2019-Dec-13 18:05 357 1 gusting 3 7.1
2019-Dec-13 18:00 331 0 gusting 2 7.1
2019-Dec-13 17:55 319 1 gusting 2 7.3
2019-Dec-13 17:50 316 1 gusting 2 7.5
2019-Dec-13 17:45 331 1 gusting 2 7.7
2019-Dec-13 17:40 321 1 gusting 3 7.9
2019-Dec-13 17:35 337 1 gusting 2 8.0
2019-Dec-13 17:30 328 1 gusting 3 8.1
2019-Dec-13 17:25 331 1 gusting 2 8.1
2019-Dec-13 17:20 328 1 gusting 2 8.2
2019-Dec-13 17:15 325 1 gusting 2 8.4
2019-Dec-13 17:10 332 1 gusting 2 8.7
2019-Dec-13 17:05 315 1 gusting 2 8.8
2019-Dec-13 17:00 346 1 gusting 2 8.7
2019-Dec-13 16:55 353 1 gusting 2 8.7
2019-Dec-13 16:50 345 1 gusting 3 8.7
2019-Dec-13 16:45 344 1 gusting 2 8.8
2019-Dec-13 16:40 328 1 gusting 2 8.8
2019-Dec-13 16:35 340 1 gusting 3 8.7
2019-Dec-13 16:30 352 1 gusting 3 8.6
2019-Dec-13 16:25 004 1 gusting 3 8.6
2019-Dec-13 16:20 012 1 gusting 3 8.4
2019-Dec-13 16:15 351 1 gusting 3 8.2
2019-Dec-13 16:10 356 2 gusting 3 8.2
2019-Dec-13 16:05 353 1 gusting 3 8.2
2019-Dec-13 16:00 017 1 gusting 2 8.0
2019-Dec-13 15:55 030 1 gusting 2 7.7
2019-Dec-13 15:50 047 1 gusting 2 7.4
2019-Dec-13 15:45 087 0 gusting 1 7.0
2019-Dec-13 15:40 091 1 gusting 3 6.8
2019-Dec-13 15:35 094 2 gusting 4 6.5
2019-Dec-13 15:30 092 2 gusting 4 6.3
2019-Dec-13 15:25 109 2 gusting 5 6.2
2019-Dec-13 15:20 109 3 gusting 5 6.0
2019-Dec-13 15:15 115 2 gusting 4 5.8
2019-Dec-13 15:10 103 3 gusting 7 5.7
2019-Dec-13 15:05 104 3 gusting 6 5.5
2019-Dec-13 15:00 106 3 gusting 6 5.4
2019-Dec-13 14:55 096 3 gusting 7 5.2
2019-Dec-13 14:50 101 3 gusting 5 5.0
2019-Dec-13 14:45 098 3 gusting 5 4.7
2019-Dec-13 14:40 101 3 gusting 6 4.4
2019-Dec-13 14:35 091 3 gusting 6 4.1
2019-Dec-13 14:30 099 3 gusting 6 3.7
2019-Dec-13 14:25 102 2 gusting 3 3.5
2019-Dec-13 14:20 098 3 gusting 6 3.2
2019-Dec-13 14:15 093 3 gusting 6 3.1
2019-Dec-13 14:10 090 2 gusting 5 2.9
2019-Dec-13 14:05 095 2 gusting 4 2.7
2019-Dec-13 14:00 087 2 gusting 4 2.6
2019-Dec-13 13:55 089 2 gusting 4 2.4
2019-Dec-13 13:50 089 2 gusting 5 2.3
2019-Dec-13 13:45 094 2 gusting 5 2.1
2019-Dec-13 13:40 086 2 gusting 4 2.0
2019-Dec-13 13:35 094 3 gusting 5 1.8
2019-Dec-13 13:30 095 2 gusting 4 1.7
2019-Dec-13 13:25 086 1 gusting 3 1.6
2019-Dec-13 13:20 082 1 gusting 3 1.3
2019-Dec-13 13:15 080 1 gusting 3 1.0
2019-Dec-13 13:10 077 1 gusting 2 0.7
2019-Dec-13 13:05 077 1 gusting 2 0.6
2019-Dec-13 13:00 075 1 gusting 2 0.4
2019-Dec-13 12:55 068 1 gusting 2 0.3
2019-Dec-13 12:50 057 1 gusting 2 0.2
2019-Dec-13 12:45 055 1 gusting 2 0.0
2019-Dec-13 12:40 064 1 gusting 2 -0.2
2019-Dec-13 12:35 065 0 gusting 1 -0.3
2019-Dec-13 12:30 057 1 gusting 3 -0.4
2019-Dec-13 12:25 059 1 gusting 2 -0.4
2019-Dec-13 12:20 061 1 gusting 2 -0.3
2019-Dec-13 12:15 067 0 gusting 2 -0.4
2019-Dec-13 12:10 074 1 gusting 2 -0.5
2019-Dec-13 12:05 060 0 gusting 2 -0.4
2019-Dec-13 12:00 080 1 gusting 3 -0.5
2019-Dec-13 11:55 051 0 gusting 2 -0.6
2019-Dec-13 11:50 045 1 gusting 2 -0.5
2019-Dec-13 11:45 060 1 gusting 3 -0.5
2019-Dec-13 11:40 083 2 gusting 3 -0.7
2019-Dec-13 11:35 075 1 gusting 2 -1.0
2019-Dec-13 11:30 055 0 gusting 2 -1.2
2019-Dec-13 11:25 070 1 gusting 3 -1.6
2019-Dec-13 11:20 067 1 gusting 3 -1.7
2019-Dec-13 11:15 052 0 gusting 1 -1.8
2019-Dec-13 11:10 044 0 gusting 1 -2.0
2019-Dec-13 11:05 043 0 gusting 1 -2.2
2019-Dec-13 11:00 030 1 gusting 2 -2.1
2019-Dec-13 10:55 026 1 gusting 2 -2.1
2019-Dec-13 10:50 335 0 gusting 1 -2.1
2019-Dec-13 10:45 348 0 gusting 1 -1.9
2019-Dec-13 10:40 356 1 gusting 1 -1.5
2019-Dec-13 10:35 015 0 gusting 0 -1.5
2019-Dec-13 10:30 020 0 gusting 1 -1.4
2019-Dec-13 10:25 009 1 gusting 1 -1.4
2019-Dec-13 10:20 014 0 gusting 1 -1.5
2019-Dec-13 10:15 022 0 gusting 1 -1.5
2019-Dec-13 10:10 052 0 gusting 1 -1.5
2019-Dec-13 10:05 026 0 gusting 1 -1.5
2019-Dec-13 10:00 006 1 gusting 1 -1.5
2019-Dec-13 09:50 031 0 gusting 1 -1.7
2019-Dec-13 09:45 033 0 gusting 1 -1.6
2019-Dec-13 09:40 037 0 gusting 1 -1.7
2019-Dec-13 09:35 -1.8
2019-Dec-13 09:30 356 0 gusting 1 -2.0
2019-Dec-13 09:25 287 0 gusting 0 -2.2
2019-Dec-13 09:20 323 0 gusting 0 -2.4
2019-Dec-13 09:15 347 0 gusting 1 -2.6
2019-Dec-13 09:10 350 0 gusting 1 -2.7
2019-Dec-13 09:05 088 0 gusting 0 -2.9
2019-Dec-13 09:00 -3.0
2019-Dec-13 08:55 088 0 gusting 0 -3.1
2019-Dec-13 08:50 088 0 gusting 0 -3.3
2019-Dec-13 08:45 088 0 gusting 0 -3.3
2019-Dec-13 08:40 088 0 gusting 0 -3.5
2019-Dec-13 08:35 089 0 gusting 0 -3.4
2019-Dec-13 08:30 -3.4
2019-Dec-13 08:25 -3.4
2019-Dec-13 08:20 120 0 gusting 0 -3.4
2019-Dec-13 08:15 -3.4
2019-Dec-13 08:10 338 0 gusting 1 -3.2
2019-Dec-13 08:05 333 0 gusting 1 -3.4
2019-Dec-13 08:00 325 0 gusting 1 -3.3
2019-Dec-13 07:55 323 0 gusting 1 -3.1
2019-Dec-13 07:50 345 0 gusting 1 -3.1
2019-Dec-13 07:45 357 1 gusting 1 -3.1
2019-Dec-13 07:40 004 1 gusting 1 -3.2
2019-Dec-13 07:35 348 1 gusting 2 -3.3
2019-Dec-13 07:30 334 0 gusting 1 -3.5
2019-Dec-13 07:25 339 0 gusting 0 -3.4
2019-Dec-13 07:20 022 1 gusting 1 -3.1
2019-Dec-13 07:05 040 0 gusting 1 -3.2
2019-Dec-13 07:00 033 0 gusting 0 -2.9
2019-Dec-13 06:55 037 0 gusting 1 -2.8
2019-Dec-13 06:50 081 0 gusting 0 -2.9
2019-Dec-13 06:45 120 0 gusting 0 -2.9
2019-Dec-13 06:40 097 0 gusting 1 -2.6
2019-Dec-13 06:35 093 0 gusting 1 -2.4
2019-Dec-13 06:30 097 0 gusting 1 -2.6
2019-Dec-13 06:25 357 0 gusting 1 -2.6
2019-Dec-13 06:20 345 1 gusting 2 -2.7
2019-Dec-13 06:15 338 1 gusting 2 -2.7
2019-Dec-13 06:10 334 1 gusting 2 -2.6
2019-Dec-13 06:05 333 1 gusting 1 -2.4
2019-Dec-13 06:00 334 1 gusting 1 -2.5
2019-Dec-13 05:55 332 0 gusting 1 -2.6
2019-Dec-13 05:50 345 0 gusting 0 -2.7
2019-Dec-13 05:45 001 0 gusting 1 -2.7
2019-Dec-13 05:40 008 0 gusting 1 -2.8
2019-Dec-13 05:35 034 0 gusting 1 -2.8
2019-Dec-13 05:30 038 0 gusting 0 -2.8
2019-Dec-13 05:25 036 0 gusting 1 -2.6
2019-Dec-13 05:20 032 0 gusting 1 -2.5
2019-Dec-13 05:05 024 0 gusting 0 -2.2
2019-Dec-13 05:00 024 0 gusting 1 -2.1
2019-Dec-13 04:55 026 1 gusting 1 -1.7
2019-Dec-13 04:50 035 0 gusting 1 -1.4
2019-Dec-13 04:45 048 0 gusting 1 -1.6
2019-Dec-13 04:40 071 0 gusting 1 -1.7
2019-Dec-13 04:35 078 0 gusting 2 -1.8
2019-Dec-13 04:30 069 1 gusting 2 -1.8
2019-Dec-13 04:25 058 1 gusting 2 -1.8
2019-Dec-13 04:20 047 0 gusting 2 -1.8
2019-Dec-13 04:15 039 1 gusting 2 -1.7
2019-Dec-13 04:10 040 1 gusting 2 -1.7
2019-Dec-13 04:05 042 1 gusting 2 -1.7
2019-Dec-13 04:00 047 1 gusting 2 -1.7
2019-Dec-13 03:55 038 1 gusting 3 -1.8
2019-Dec-13 03:50 043 1 gusting 1 -1.9
2019-Dec-13 03:45 038 1 gusting 2 -1.9
2019-Dec-13 03:40 034 1 gusting 2 -1.7
2019-Dec-13 03:35 040 1 gusting 3 -1.8
2019-Dec-13 03:30 044 1 gusting 2 -1.8
2019-Dec-13 03:25 059 1 gusting 3 -1.7
2019-Dec-13 03:20 041 1 gusting 2 -1.8
2019-Dec-13 03:15 059 1 gusting 3 -2.1
2019-Dec-13 03:10 050 1 gusting 3 -2.2
2019-Dec-13 03:05 046 1 gusting 2 -2.3
2019-Dec-13 03:00 052 0 gusting 2 -2.3
2019-Dec-13 02:55 036 0 gusting 1 -2.3
2019-Dec-13 02:50 059 0 gusting 1 -2.4
2019-Dec-13 02:45 042 0 gusting 2 -2.2
2019-Dec-13 02:40 047 0 gusting 1 -1.9
2019-Dec-13 02:35 051 0 gusting 2 -1.7
2019-Dec-13 02:30 085 0 gusting 3 -1.8
2019-Dec-13 02:25 075 0 gusting 2 -2.1
2019-Dec-13 02:20 073 0 gusting 2 -2.3
2019-Dec-13 02:15 069 0 gusting 1 -2.4
2019-Dec-13 02:10 069 1 gusting 3 -2.7
2019-Dec-13 02:05 052 0 gusting 1 -2.8
2019-Dec-13 02:00 067 0 gusting 2 -3.1
2019-Dec-13 01:55 057 0 gusting 2 -3.7
2019-Dec-13 01:50 050 0 gusting 1 -3.6
2019-Dec-13 01:45 033 0 gusting 1 -3.8
2019-Dec-13 01:40 035 0 gusting 1 -3.7
2019-Dec-13 01:35 045 0 gusting 1 -3.7
2019-Dec-13 01:30 053 0 gusting 1 -4.0
2019-Dec-13 01:25 039 0 gusting 0 -3.8
2019-Dec-13 01:20 044 0 gusting 1 -3.5
2019-Dec-13 01:15 072 0 gusting 1 -3.4
2019-Dec-13 01:10 097 0 gusting 1 -3.2
2019-Dec-13 01:05 101 0 gusting 1 -2.8
2019-Dec-13 01:00 101 1 gusting 2 -2.9
2019-Dec-13 00:55 100 1 gusting 2 -3.3
2019-Dec-13 00:50 102 1 gusting 2 -3.5
2019-Dec-13 00:45 109 1 gusting 2 -3.7
2019-Dec-13 00:40 113 0 gusting 1 -3.8
2019-Dec-13 00:35 090 0 gusting 0 -3.8
2019-Dec-13 00:30 079 0 gusting 0 -3.9
2019-Dec-13 00:25 -3.9
2019-Dec-13 00:20 -3.7
2019-Dec-13 00:15 -3.5
2019-Dec-13 00:10 127 0 gusting 0 -3.4
2019-Dec-13 00:05 121 0 gusting 0 -3.6
2019-Dec-13 00:00 111 0 gusting 1 -3.5
2019-Dec-12 23:55 092 0 gusting 1 -3.5
2019-Dec-12 23:50 097 1 gusting 2 -3.6
2019-Dec-12 23:45 111 0 gusting 1 -3.7
2019-Dec-12 23:40 082 0 gusting 1 -3.6
2019-Dec-12 23:35 090 1 gusting 2 -3.4
2019-Dec-12 23:30 095 1 gusting 2 -3.2
2019-Dec-12 23:25 097 0 gusting 1 -3.0
2019-Dec-12 23:20 092 0 gusting 0 -2.8
2019-Dec-12 23:15 -2.8
2019-Dec-12 23:10 -2.7
2019-Dec-12 23:05 -2.7
2019-Dec-12 23:00 077 0 gusting 0 -2.5
2019-Dec-12 22:55 076 0 gusting 0 -2.2
2019-Dec-12 22:50 081 0 gusting 1 -1.9
2019-Dec-12 22:45 086 0 gusting 1 -1.6
2019-Dec-12 22:40 072 0 gusting 0 -1.6
2019-Dec-12 22:35 073 0 gusting 1 -1.3
2019-Dec-12 22:30 062 0 gusting 1 -1.4
2019-Dec-12 22:25 072 0 gusting 1 -1.4
2019-Dec-12 22:20 063 0 gusting 1 -1.2
2019-Dec-12 22:15 082 0 gusting 1 -1.2
2019-Dec-12 22:10 097 0 gusting 1 -1.0
2019-Dec-12 22:05 103 1 gusting 2 -0.8
2019-Dec-12 22:00 102 1 gusting 1 -0.6
2019-Dec-12 21:55 093 1 gusting 1 -0.6
2019-Dec-12 21:50 101 1 gusting 2 -0.4
2019-Dec-12 21:45 108 1 gusting 2 0.1
2019-Dec-12 21:40 114 1 gusting 2 0.3
2019-Dec-12 21:35 125 1 gusting 1 0.5
2019-Dec-12 21:30 103 1 gusting 2 0.6
2019-Dec-12 21:25 106 2 gusting 3 0.8
2019-Dec-12 21:20 124 2 gusting 4 1.1
2019-Dec-12 21:15 133 2 gusting 4 1.3
2019-Dec-12 21:10 126 2 gusting 4 1.4
2019-Dec-12 21:05 126 2 gusting 5 1.5
2019-Dec-12 21:00 130 2 gusting 4 1.7
2019-Dec-12 20:55 127 2 gusting 4 1.9
2019-Dec-12 20:50 129 2 gusting 6 1.9
2019-Dec-12 20:45 124 3 gusting 5 2.0
2019-Dec-12 20:40 115 3 gusting 5 2.0
2019-Dec-12 20:35 121 2 gusting 5 2.2
2019-Dec-12 20:30 135 2 gusting 5 2.6
2019-Dec-12 20:25 134 2 gusting 5 2.5
2019-Dec-12 20:20 118 3 gusting 5 2.4
2019-Dec-12 20:15 124 2 gusting 4 2.4
2019-Dec-12 20:10 111 3 gusting 6 2.4
2019-Dec-12 20:05 122 3 gusting 5 2.6
2019-Dec-12 20:00 130 2 gusting 5 2.7
2019-Dec-12 19:55 144 3 gusting 6 2.8
2019-Dec-12 19:50 130 3 gusting 5 2.5
2019-Dec-12 19:45 127 3 gusting 6 2.5
2019-Dec-12 19:40 143 3 gusting 5 2.5
2019-Dec-12 19:35 121 4 gusting 8 2.6
2019-Dec-12 19:30 130 3 gusting 6 2.7
2019-Dec-12 19:25 121 4 gusting 8 3.1
2019-Dec-12 19:20 161 3 gusting 6 3.3
2019-Dec-12 19:15 163 4 gusting 7 3.1
2019-Dec-12 19:10 109 3 gusting 6 3.0
2019-Dec-12 19:05 117 3 gusting 5 3.0
2019-Dec-12 19:00 126 3 gusting 7 3.1
2019-Dec-12 18:55 130 2 gusting 5 3.0
2019-Dec-12 18:50 141 3 gusting 5 3.0
2019-Dec-12 18:45 116 3 gusting 5 2.9
2019-Dec-12 18:40 103 4 gusting 8 2.9
2019-Dec-12 18:35 096 3 gusting 7 2.9
2019-Dec-12 18:30 048 1 gusting 4 2.9
2019-Dec-12 18:25 171 3 gusting 5 3.1
2019-Dec-12 18:20 157 3 gusting 5 3.1
2019-Dec-12 18:15 162 4 gusting 8 3.2
2019-Dec-12 18:10 147 2 gusting 5 3.3
2019-Dec-12 18:05 124 1 gusting 3 2.8
2019-Dec-12 18:00 129 2 gusting 4 3.1
2019-Dec-12 17:55 141 1 gusting 3 2.8
2019-Dec-12 17:50 100 2 gusting 7 2.9
2019-Dec-12 17:45 096 2 gusting 5 2.8
2019-Dec-12 17:40 192 0 gusting 2 2.6
2019-Dec-12 17:35 131 2 gusting 6 2.4
2019-Dec-12 17:30 110 2 gusting 5 2.0
2019-Dec-12 17:25 017 1 gusting 3 2.3
2019-Dec-12 17:20 060 1 gusting 4 2.1
2019-Dec-12 17:15 082 2 gusting 6 2.1
2019-Dec-12 17:10 070 2 gusting 6 2.0
2019-Dec-12 17:05 082 3 gusting 7 2.0
2019-Dec-12 17:00 064 1 gusting 5 1.8
2019-Dec-12 16:55 074 1 gusting 4 1.3
2019-Dec-12 16:50 110 3 gusting 5 1.4
2019-Dec-12 16:45 124 2 gusting 5 1.5
2019-Dec-12 16:40 114 3 gusting 6 1.4
2019-Dec-12 16:35 124 3 gusting 8 2.0
2019-Dec-12 16:30 083 2 gusting 8 1.9
2019-Dec-12 16:25 124 2 gusting 5 1.7
2019-Dec-12 16:20 082 3 gusting 6 1.8
2019-Dec-12 16:15 073 2 gusting 4 1.2
2019-Dec-12 16:10 037 3 gusting 6 1.5
2019-Dec-12 16:05 050 1 gusting 4 1.6
2019-Dec-12 16:00 042 2 gusting 5 1.4
2019-Dec-12 15:55 075 1 gusting 4 1.2
2019-Dec-12 15:50 053 2 gusting 4 1.1
2019-Dec-12 15:45 046 2 gusting 5 1.1
2019-Dec-12 15:40 054 2 gusting 5 0.7
2019-Dec-12 15:35 068 2 gusting 4 1.0
2019-Dec-12 15:30 062 2 gusting 5 0.8
2019-Dec-12 15:25 045 2 gusting 5 0.5
2019-Dec-12 15:20 051 2 gusting 6 0.6
2019-Dec-12 15:15 044 2 gusting 5 0.5
2019-Dec-12 15:10 047 2 gusting 7 0.6
2019-Dec-12 15:05 074 2 gusting 4 0.4
2019-Dec-12 15:00 072 2 gusting 4 0.4
2019-Dec-12 14:55 064 2 gusting 5 -0.1
2019-Dec-12 14:50 032 3 gusting 7 -0.2
2019-Dec-12 14:45 042 2 gusting 5 -0.0
2019-Dec-12 14:40 051 2 gusting 4 -0.0
2019-Dec-12 14:35 029 2 gusting 4 -0.1
2019-Dec-12 14:30 034 2 gusting 5 -0.5
2019-Dec-12 14:25 035 2 gusting 4 -0.4
2019-Dec-12 14:20 031 2 gusting 5 -0.7
2019-Dec-12 14:15 021 3 gusting 6 -0.8
2019-Dec-12 14:10 026 3 gusting 5 -1.2
2019-Dec-12 14:05 024 3 gusting 5 -1.3
2019-Dec-12 14:00 020 3 gusting 5 -1.4
2019-Dec-12 13:55 030 4 gusting 6 -1.4
2019-Dec-12 13:50 024 2 gusting 4 -1.4
2019-Dec-12 13:45 023 2 gusting 4 -1.5
2019-Dec-12 13:40 022 3 gusting 5 -1.8
2019-Dec-12 13:35 016 3 gusting 5 -1.9
2019-Dec-12 13:30 016 2 gusting 4 -2.0
2019-Dec-12 13:25 009 2 gusting 3 -2.2
2019-Dec-12 13:20 005 3 gusting 5 -2.3
2019-Dec-12 13:15 010 2 gusting 4 -2.4
2019-Dec-12 13:10 007 2 gusting 3 -2.6
2019-Dec-12 13:05 007 2 gusting 4 -2.6
2019-Dec-12 13:00 -2.6
2019-Dec-12 12:55 003 0 gusting 0 -2.7
2019-Dec-12 12:50 036 0 gusting 1 -3.1
2019-Dec-12 12:45 028 1 gusting 3 -3.4
2019-Dec-12 12:40 012 0 gusting 2 -3.5
2019-Dec-12 12:35 355 1 gusting 2 -3.5
2019-Dec-12 12:30 008 1 gusting 2 -3.4
2019-Dec-12 12:25 008 2 gusting 3 -3.3
2019-Dec-12 12:20 014 2 gusting 2 -3.2
2019-Dec-12 12:15 016 2 gusting 5 -3.1
2019-Dec-12 12:10 006 2 gusting 5 -3.0
2019-Dec-12 12:05 359 2 gusting 4 -3.0
2019-Dec-12 12:00 004 3 gusting 6 -3.0
2019-Dec-12 11:55 012 3 gusting 6 -3.1
2019-Dec-12 11:50 014 2 gusting 5 -3.0
2019-Dec-12 11:45 008 3 gusting 6 -3.0
2019-Dec-12 11:40 006 4 gusting 6 -2.8
2019-Dec-12 11:35 -2.8
2019-Dec-12 11:30 356 4 gusting 8 -2.8
2019-Dec-12 11:25 002 4 gusting 6 -2.9
2019-Dec-12 11:20 353 3 gusting 6 -2.8
2019-Dec-12 11:15 359 4 gusting 6 -2.9
2019-Dec-12 11:10 357 3 gusting 4 -2.9
2019-Dec-12 11:05 357 3 gusting 7 -3.0
2019-Dec-12 11:00 356 3 gusting 5 -2.9
2019-Dec-12 10:55 355 2 gusting 5 -2.7
2019-Dec-12 10:50 005 2 gusting 5 -2.7
2019-Dec-12 10:45 355 3 gusting 7 -2.6
2019-Dec-12 10:40 360 3 gusting 4 -2.7
2019-Dec-12 10:35 347 3 gusting 5 -2.7
2019-Dec-12 10:30 354 4 gusting 7 -2.6
2019-Dec-12 10:25 356 3 gusting 6 -2.6
2019-Dec-12 10:20 345 3 gusting 5 -2.6
2019-Dec-12 10:15 346 3 gusting 5 -2.5
2019-Dec-12 10:10 346 3 gusting 6 -2.4
2019-Dec-12 10:05 340 3 gusting 6 -2.3
2019-Dec-12 10:00 343 4 gusting 7 -2.3
2019-Dec-12 09:55 354 3 gusting 5 -2.3
2019-Dec-12 09:50 002 3 gusting 5 -2.2
2019-Dec-12 09:45 -2.1
2019-Dec-12 09:40 348 4 gusting 8 -2.1
2019-Dec-12 09:35 347 4 gusting 7 -2.1
2019-Dec-12 09:30 343 3 gusting 7 -2.0
2019-Dec-12 09:25 345 4 gusting 6 -2.0
2019-Dec-12 09:20 347 4 gusting 10 -2.0
2019-Dec-12 09:15 350 5 gusting 10 -2.1
2019-Dec-12 09:10 005 4 gusting 6 -2.1
2019-Dec-12 09:05 002 3 gusting 7 -2.1
2019-Dec-12 09:00 002 4 gusting 8 -2.1
2019-Dec-12 08:55 011 4 gusting 6 -2.1
2019-Dec-12 08:50 012 4 gusting 8 -2.0
2019-Dec-12 08:45 003 3 gusting 8 -2.0
2019-Dec-12 08:40 346 3 gusting 6 -1.9
2019-Dec-12 08:35 351 4 gusting 7 -1.9
2019-Dec-12 08:30 005 3 gusting 6 -1.9
2019-Dec-12 08:25 001 3 gusting 7 -1.9
2019-Dec-12 08:20 353 3 gusting 7 -2.0
2019-Dec-12 08:15 357 3 gusting 6 -1.9
2019-Dec-12 08:10 004 2 gusting 5 -1.9
2019-Dec-12 08:05 003 2 gusting 4 -2.1
2019-Dec-12 08:00 351 3 gusting 4 -2.0
2019-Dec-12 07:55 352 3 gusting 5 -2.0
2019-Dec-12 07:50 015 2 gusting 3 -2.0
2019-Dec-12 07:45 008 2 gusting 4 -2.2
2019-Dec-12 07:40 345 2 gusting 4 -2.3
2019-Dec-12 07:35 346 3 gusting 5 -2.3
2019-Dec-12 07:30 016 0 gusting 3 -2.7
2019-Dec-12 07:25 102 0 gusting 1 -2.7
2019-Dec-12 07:20 348 0 gusting 1 -2.8
2019-Dec-12 07:05 188 0 gusting 0 -2.9
2019-Dec-12 07:00 178 0 gusting 1 -2.2
2019-Dec-12 06:55 180 0 gusting 0 -2.0
2019-Dec-12 06:50 292 0 gusting 0 -1.9
2019-Dec-12 06:45 311 0 gusting 1 -1.9
2019-Dec-12 06:40 308 0 gusting 2 -1.9
2019-Dec-12 06:35 293 1 gusting 2 -1.9
2019-Dec-12 06:30 280 1 gusting 2 -1.8
2019-Dec-12 06:25 293 1 gusting 2 -1.8
2019-Dec-12 06:20 304 1 gusting 2 -1.8
2019-Dec-12 06:15 303 1 gusting 2 -1.7
2019-Dec-12 06:10 297 1 gusting 2 -1.6
2019-Dec-12 06:05 297 1 gusting 3 -1.5
2019-Dec-12 06:00 302 0 gusting 1 -1.5
2019-Dec-12 05:55 285 1 gusting 2 -1.4
2019-Dec-12 05:50 290 2 gusting 3 -1.5
2019-Dec-12 05:45 302 1 gusting 3 -1.4
2019-Dec-12 05:40 290 1 gusting 3 -1.3
2019-Dec-12 05:35 295 1 gusting 2 -1.2
2019-Dec-12 05:30 293 2 gusting 4 -1.2
2019-Dec-12 05:25 297 1 gusting 3 -1.3
2019-Dec-12 05:20 316 0 gusting 2 -1.2
2019-Dec-12 05:15 300 2 gusting 4 -1.1
2019-Dec-12 05:10 285 2 gusting 5 -1.1
2019-Dec-12 05:05 289 1 gusting 2 -0.9
2019-Dec-12 05:00 275 1 gusting 2 -0.9
2019-Dec-12 04:55 292 0 gusting 1 -0.8
2019-Dec-12 04:50 295 1 gusting 4 -0.5
2019-Dec-12 04:45 291 2 gusting 4 -0.6
2019-Dec-12 04:40 283 2 gusting 5 -0.7
2019-Dec-12 04:35 299 1 gusting 3 -0.7
2019-Dec-12 04:30 302 1 gusting 3 -0.6
2019-Dec-12 04:25 308 2 gusting 6 -0.5
2019-Dec-12 04:20 311 1 gusting 3 -0.4
2019-Dec-12 04:15 309 1 gusting 3 -0.1
2019-Dec-12 04:10 303 2 gusting 7 -0.0
2019-Dec-12 04:05 301 2 gusting 5 0.0
2019-Dec-12 04:00 301 3 gusting 6 0.0
2019-Dec-12 03:55 302 2 gusting 5 0.1
2019-Dec-12 03:50 297 3 gusting 8 0.0
2019-Dec-12 03:45 307 2 gusting 5 0.0
2019-Dec-12 03:40 305 3 gusting 6 0.0
2019-Dec-12 03:35 310 2 gusting 4 0.1
2019-Dec-12 03:30 307 3 gusting 6 0.4
2019-Dec-12 03:25 312 3 gusting 9 0.3
2019-Dec-12 03:20 314 3 gusting 8 0.3
2019-Dec-12 03:15 307 2 gusting 4 0.4
2019-Dec-12 03:10 307 3 gusting 7 0.4
2019-Dec-12 03:05 310 3 gusting 9 0.5
2019-Dec-12 03:00 310 5 gusting 12 0.5
2019-Dec-12 02:55 309 2 gusting 7 0.3
2019-Dec-12 02:50 310 3 gusting 6 0.5
2019-Dec-12 02:45 307 3 gusting 8 0.6
2019-Dec-12 02:40 304 4 gusting 7 0.6
2019-Dec-12 02:35 316 3 gusting 7 0.6
2019-Dec-12 02:30 316 3 gusting 9 0.8
2019-Dec-12 02:25 317 3 gusting 7 0.6
2019-Dec-12 02:20 317 2 gusting 6 0.6
2019-Dec-12 02:15 307 3 gusting 7 0.5
2019-Dec-12 02:10 313 2 gusting 5 0.4
2019-Dec-12 02:05 305 2 gusting 7 0.4
2019-Dec-12 02:00 299 2 gusting 6 0.5
2019-Dec-12 01:55 297 2 gusting 7 0.4
2019-Dec-12 01:50 302 1 gusting 5 0.5
2019-Dec-12 01:45 302 2 gusting 5 0.6
2019-Dec-12 01:40 301 2 gusting 6 0.7
2019-Dec-12 01:35 291 3 gusting 6 0.8
2019-Dec-12 01:30 292 2 gusting 6 0.8
2019-Dec-12 01:25 295 2 gusting 6 0.8
2019-Dec-12 01:20 298 2 gusting 5 0.7
2019-Dec-12 01:15 302 1 gusting 4 0.6
2019-Dec-12 01:10 307 1 gusting 4 0.7
2019-Dec-12 01:05 300 2 gusting 5 1.0
2019-Dec-12 01:00 295 3 gusting 8 0.8
2019-Dec-12 00:55 294 2 gusting 5 0.4
2019-Dec-12 00:50 301 2 gusting 4 0.4
2019-Dec-12 00:45 298 2 gusting 5 0.4
2019-Dec-12 00:40 294 2 gusting 4 0.3
2019-Dec-12 00:35 283 2 gusting 4 0.2
2019-Dec-12 00:30 278 2 gusting 4 0.1
2019-Dec-12 00:25 275 2 gusting 3 -0.1
2019-Dec-12 00:20 285 1 gusting 3 -0.3
2019-Dec-12 00:15 303 1 gusting 2 -0.4
2019-Dec-12 00:10 301 1 gusting 3 -0.5
2019-Dec-12 00:05 287 1 gusting 2 -0.6
2019-Dec-12 00:00 277 0 gusting 2 -0.8
2019-Dec-11 23:55 244 0 gusting 0 -0.5
2019-Dec-11 23:50 224 0 gusting 1 -0.3
2019-Dec-11 23:45 269 0 gusting 2 -0.6
2019-Dec-11 23:40 291 0 gusting 1 -0.3
2019-Dec-11 23:35 286 0 gusting 1 -0.2
2019-Dec-11 23:30 280 0 gusting 1 -0.1
2019-Dec-11 23:25 267 0 gusting 1 0.2
2019-Dec-11 23:20 264 1 gusting 1 0.3
2019-Dec-11 23:15 276 1 gusting 3 0.4
2019-Dec-11 23:10 276 1 gusting 2 0.5
2019-Dec-11 23:05 277 1 gusting 3 0.6
2019-Dec-11 23:00 271 1 gusting 3 0.5